Regional Weather Roundup
Issued by NWS

Home | Current Version | Previous Version | Graphics & Text | Print | Product List | Glossary On
Versions: 1 2 3 4 5 6 7 8 9 10 11 12 13 14 15 16 17 18 19 20 21 22 23 24 25 26 27 28 29 30 31 32 33 34 35 36 37 38 39 40 41 42 43 44 45 46 47 48 49 50
000
ASUS43 KIND 052209
RWRIN

WEATHER ROUNDUP FOR INDIANA
NATIONAL WEATHER SERVICE INDIANAPOLIS IN
500 PM EST THU MAR 05 2015

NOTE: "FAIR" INDICATES FEW OR NO CLOUDS BELOW 12,000 FEET WITH NO
SIGNIFICANT WEATHER AND/OR OBSTRUCTIONS TO VISIBILITY.

* - STATION DOES NOT REPORT WEATHER SUCH AS PRECIPITATION OR FOG.

+ - STATION NOT QUALITY CONTROLLED BY THE NATIONAL WEATHER SERVICE.
    USE DATA WITH CAUTION...ESPECIALLY DEWPOINT AND RELATIVE
    HUMIDITY OBSERVATIONS.

INZ001>003-010>013-019-020-052300-
NORTHWEST INDIANA

CITY           SKY/WX    TMP DP  RH WIND       PRES   REMARKS
KNOX *+          N/A     19  -9  27 N9        30.47R WCI   9
LA PORTE +     SUNNY     19   4  51 NW9       30.48R WCI   8
MICHIGAN CITY+ SUNNY     18  -4  38 NW10      30.50R WCI   6
MONTICELLO +   SUNNY     17   4  56 W9        30.49R WCI   6
RENSSELAER +   SUNNY     19   5  53 W9        30.50R WCI   9
VALPARAISO     SUNNY     19  -1  41 N7        30.47R WCI  10

$$

LMZ046-743>745-052300-
SOUTHERN LAKE MICHIGAN

STATION/POSITION TIME  TEMP WIND        PRES
                       AIR  DIR/SP/G
                 (UTC) (F)  (DEG/KT/KT) (MB)
MICHIGAN CITY    2200   18  300/  8/ 11   N/A

$$

INZ004-005-014>016-021>024-052300-
NORTH CENTRAL INDIANA

CITY           SKY/WX    TMP DP  RH WIND       PRES   REMARKS
ELKHART        MOSUNNY   18   7  62 W14       30.46R WCI   4
GOSHEN         PTSUNNY   17   6  62 NW15      30.44R WCI   2
LOGANSPORT +   CLOUDY    21   5  49 W12       30.49R WCI   9
PERU/GRISSOM   FLURRIES  20  11  68 W12       30.45R WCI   8
ROCHESTER +    MOSUNNY   23   5  46 NW12      30.47R WCI  12
SOUTH BEND     PTSUNNY   17   5  59 W17       30.47R WCI   1
WARSAW +       MOSUNNY   19   5  53 NW9       30.45R WCI   9

$$

INZ006>009-017-018-025>027-052300-
NORTHEAST INDIANA

CITY           SKY/WX    TMP DP  RH WIND       PRES   REMARKS
ANGOLA *+      CLOUDY    18   5  57 N7        30.41R WCI   8
AUBURN +       PTSUNNY   19   5  53 W8        30.44R WCI   9
FORT WAYNE     PTSUNNY   19   5  54 NW8       30.45R WCI   9
HUNTINGTON +   SUNNY     19   9  63 W9        30.45R WCI   8

$$

INZ028-029-035-036-043>045-051>053-052300-
WEST CENTRAL INDIANA

CITY           SKY/WX    TMP DP  RH WIND       PRES   REMARKS
CRAWFORDSVL +  SUNNY     16  -1  47 NW9       30.49S WCI   4
GREENCASTLE +  FAIR      19   1  45 NW8       30.49R WCI   9
LAFAYETTE      SUNNY     16   2  54 W12       30.51R WCI   3
TERRE HAUTE    SUNNY     17   3  54 NW9       30.52R WCI   6

$$

INZ030>032-037>040-046>048-054>057-064-065-052300-
CENTRAL INDIANA

CITY           SKY/WX    TMP DP  RH WIND       PRES   REMARKS
CP ATTERBURY + SUNNY     23   9  54 NW12      30.48R WCI  12
FRANKFORT +    MOSUNNY   21  10  64 W12       30.49R WCI   9
GREENWOOD *+   MOSUNNY   21   3  45 W9        30.47R WCI  11
INDIANAPOLIS   MOSUNNY   20   7  57 NW13      30.47R WCI   7
-EAGLE CREEK   MOSUNNY   19   5  54 NW9       30.47R WCI   8
KOKOMO *+      SUNNY     19   9  63 W14       30.47R WCI   6
MARION +       MOSUNNY   18   9  67 W10       30.47R WCI   7
MT COMFORT *+  MOSUNNY   21   1  42 N12       30.46R WCI   9
SHELBYVILLE    CLOUDY    23   7  50 N14       30.46R WCI  11
ZIONSVILLE +   LGT SNOW  19  12  76 NW10      30.47R VSB 3/4 WCI   7

$$

INZ033-034-041-042-049-050-058-059-052300-
EAST CENTRAL INDIANA

CITY           SKY/WX    TMP DP  RH WIND       PRES   REMARKS
MUNCIE         SUNNY     19   5  54 NW12      30.45R WCI   7

$$

INZ060-061-067>069-081>083-085>088-052300-
SOUTHWEST INDIANA

CITY           SKY/WX    TMP DP  RH WIND       PRES   REMARKS
EVANSVILLE     SUNNY     22   4  46 N14       30.54R WCI   9
HUNTINGBURG *+ SUNNY     21   5  49 NW13      30.51R WCI   9
WASHINGTON +   SUNNY     20   2  46 NW12      30.52R WCI   8

$$

INZ062-063-066-070>080-084-089>092-052300-
SOUTH CENTRAL AND SOUTHEAST INDIANA

CITY           SKY/WX    TMP DP  RH WIND       PRES   REMARKS
BEDFORD +      MOSUNNY   25   5  42 W12       30.46R WCI  14
BLOOMINGTON    MOSUNNY   24   5  44 NW6       30.45R WCI  17
NORTH VERNON + MOSUNNY   23   9  54 NW10G16   30.46R WCI  12
SEYMOUR +      CLOUDY    27   9  46 NE13      30.47R WCI  16

$$



USA.gov is the U.S. government's official web portal to all federal, state and local government web resources and services.